Location: Unspecified
(47.5840°N, 122.3000°W)
Time: 15:15:28
(UTC+00:00)

IRS-1D - Pass Details

Date: 09 December 2025
Orbit: 737 x 810 km, 98.8° (Epoch: 19 January)

Event Time Altitude Azimuth Distance (km) Brightness Sun altitude
Rises 13:23:15 0° 14° (NNE) 3,199 6.8 -23.0°
Reaches altitude 10° 13:25:32 10° 14° (NNE) 2,279 6.0 -22.6°
Maximum altitude 13:30:33 85° 286° (WNW) 768 3.3 -21.8°
Drops below altitude 10° 13:35:38 10° 199° (SSW) 2,305 5.9 -20.9°
Sets 13:37:57 0° 198° (SSW) 3,239 6.7 -20.6°
